Location: ???????
(55.3754°N, 39.3545°E)
Time: 19:58:13
(UTC+00:00)

COSMOS 2455 - Pass Details

Date: 14 April 2026
Orbit: 901 x 907 km, 67.1° (Epoch: 19 May)

Event Time Altitude Azimuth Distance (km) Brightness Sun altitude
Rises 17:30:41 0° 299° (WNW) 3,542 8.4 -9.2°
Reaches altitude 10° 17:33:35 10° 311° (NW) 2,600 6.8 -9.5°
Maximum altitude 17:38:44 28° 10° (N) 1,641 4.5 -10.1°
Drops below altitude 10° 17:43:52 10° 68° (ENE) 2,598 4.9 -10.7°
Enters shadow 17:46:18 - 79° (ENE) 3,382 5.4 -11.0°
